Regional Weather Roundup
Issued by NWS Little Rock, AR

Home | Current Version | Previous Version | Graphics & Text | Print | Product List | Glossary On
Versions: 1 2 3 4 5 6 7 8 9 10 11 12 13 14 15 16 17 18 19 20 21 22 23 24 25 26 27 28 29 30 31 32
000
ASUS44 KLZK 180805
RWRLZK

WEATHER ROUNDUP FOR ARKANSAS
NATIONAL WEATHER SERVICE LITTLE ROCK AR
200 AM CST SAT NOV 18 2017

NOTE: "FAIR" INDICATES FEW OR NO CLOUDS BELOW 12,000 FEET WITH NO
SIGNIFICANT WEATHER AND/OR OBSTRUCTIONS TO VISIBILITY.

ARZ001-003-010-029-180900-
NORTHWEST ARKANSAS

CITY           SKY/WX    TMP DP  RH WIND       PRES   REMARKS
FAYETTEVILLE   PTCLDY    69  64  84 S16G22    29.54F
FORT SMITH     MOCLDY    74  64  71 SW14G23   29.56F
HARRISON       CLEAR     70  62  76 S13G24    29.53F
BENTONVILLE    CLOUDY    69  62  78 S17G25    29.54F
ROGERS         PTCLDY    69  62  78 SW17G28   29.53F
SILOAM SPGS    MOCLDY    69  63  81 S21G29    29.53F
HIGHFILL       PTCLDY    69  63  81 S16G24    29.53F
$$

ARZ004-005-016-180900-
NORTH CENTRAL ARKANSAS

CITY           SKY/WX    TMP DP  RH WIND       PRES   REMARKS
BATESVILLE     MOCLDY    70  64  81 S16G35    29.59F
FLIPPIN        CLEAR     70  63  78 SW13G21   29.53F
MTN HOME       CLEAR     68  63  84 SW14G21   29.53F
$$

ARZ040-041-180900-
WEST CENTRAL ARKANSAS

CITY           SKY/WX    TMP DP  RH WIND       PRES   REMARKS
MENA           MOCLDY    72  70  94 SW13G23   29.66S
MOUNT IDA      CLOUDY    73  66  78 VRB7G20   29.64F
$$

ARZ009-017-025-026-028-180900-
NORTHEAST ARKANSAS

CITY           SKY/WX    TMP DP  RH WIND       PRES   REMARKS
CORNING        CLOUDY    68  63  83 S23G32    29.60F
JONESBORO      PTCLDY    68  62  81 S18G30    29.64F
NEWPORT        CLOUDY    68  63  84 S23G30    29.63F
WALNUT RIDGE   CLOUDY    67  62  84 S22       29.60F
BLYTHEVILLE    CLOUDY    68  60  75 S25G37    29.68F
$$

ARZ022-023-033-042-044-180900-
CENTRAL ARKANSAS

CITY           SKY/WX    TMP DP  RH WIND       PRES   REMARKS
LITTLE ROCK    CLOUDY    71  66  84 S20G31    29.66F
N LITTLE ROCK    N/A     70  65  84 SW12G20   29.68F
JACKSONVILLE   CLOUDY    72  66  83 S13G21    29.66F
SEARCY         CLOUDY    70  68  93 S13       29.67F
HOT SPRINGS    CLOUDY    72  66  81 SW17G28   29.69F
RUSSELLVILLE   CLOUDY    74  65  73 S10G18    29.61F
CLINTON        CLOUDY    70  64  83 S7G15     29.62F
$$

ARZ036-180900-
EAST ARKANSAS

CITY           SKY/WX    TMP DP  RH WIND       PRES   REMARKS
WEST MEMPHIS   CLOUDY    67  60  78 S22G33    29.72S
$$

ARZ050-053-066-070-073-180900-
SOUTHWEST ARKANSAS

CITY           SKY/WX    TMP DP  RH WIND       PRES   REMARKS
ARKADELPHIA    CLOUDY    71  65  81 S14G20    29.71F
CAMDEN         CLOUDY    70  63  78 S9        29.74S
TEXARKANA      CLEAR     68  65  90 S13       29.71F
EL DORADO      PTCLDY    69  66  90 S15G22    29.76F
DE QUEEN       CLOUDY    69  66  90 S5        29.66F
$$

ARZ056-057-069-180900-
SOUTHEAST ARKANSAS

CITY           SKY/WX    TMP DP  RH WIND       PRES   REMARKS
PINE BLUFF     CLOUDY    70  63  78 S14       29.73F
STUTTGART      CLOUDY    70  64  81 S23       29.70F
MONTICELLO     MOCLDY    70  63  78 S15G24    29.77S

$$






USA.gov is the U.S. government's official web portal to all federal, state and local government web resources and services.